Location: Unspecified
(0.0000°N, 0.0000°E)
Time: 14:57:19
(UTC+00:00)

AO-7 - Pass Details

Date: 01 October 2021
Orbit: 1439 x 1459 km, 101.9° (Epoch: 25 October)

Event Time Altitude Azimuth Distance (km) Brightness Sun altitude
Rises 02:08:13 0° 56° (ENE) 4,521 ? -55.2°
Reaches altitude 10° 02:12:54 10° 80° (E) 3,546 ? -54.1°
Maximum altitude 02:16:38 14° 108° (ESE) 3,257 ? -53.2°
Drops below altitude 10° 02:20:21 10° 135° (SE) 3,551 ? -52.2°
Sets 02:24:59 0° 159° (SSE) 4,534 ? -51.1°
